星链-1264 (STARLINK-1264 )

导读 | 星芒AI

STARLINK-1264 是 SpaceX 星链计划中的一颗低轨通信卫星,属于第 12 批部署的星链卫星群。它运行在约 550 公里的近地轨道,旨在为全球用户提供高速互联网服务。该卫星采用先进的推进和通信技术,支持 Ku 和 Ka 频段,具备高带宽和低延迟特性。作为星链网络的一部分,STARLINK-1264 有助于扩大覆盖范围,提升网络性能,并推动偏远地区的互联网接入。

基本信息
目录编号:
45382
目录名称:
STARLINK-1264
国际标识:
2020-019Y
轨道中心:
EARTH
卫星名称:
星链-1264
卫星全名:
星链-1264 (STARLINK-1264 )
卫星状态:
已陨落 最后检测时间 2023-12-07
发射日期:
2020-03-18 UTC
国别 :
美国 (US)
星等 :
--
轨道信息
数据来源 国际轨道数据
星历时间: 2023-12-08T11:16:12+0800
轨道信息已过期695天
半长轴: 6539.351km
偏心率: 0.0005985
轨道倾角: 53.000°
近地点辐角 251.392°
升交点赤经 182.190°
平近点角 220.519°
近地点: 157.302km
远地点: 165.13km
周期: 87.713分钟
每日圈数: 16.417267
详细信息
固有亮度:
5
最大亮度:
2.5
卫星平台:
Starlink V1.0
覆盖范围:
全球
运营商:
太空探索技术公司
运营商所在国:
美国
制造商(研发单位):
太空探索技术公司
制造商所在国:
美国
使用方式:
暂无
卫星简介
星链(Starlink)计划是由太空探索技术公司(SpaceX)提出的一个巨型低轨卫星互联网星座项目,计划在2019年至2024年间在太空搭建由约1.2万颗卫星组成的“星链”网络,其中1584颗将部署在地球上空550千米处的近地轨道,并从2020年开始工作。该卫星已陨落。